�N����,����,�~����,�C��,���x,�C��,����,���ϕ���,�ő�u�ԕ���,�ő厞����,���˗�,�I�_���x,�n�����x,�ő啗���N��,DTYPE
"23/09/12","00:10",0.0,22.7,95.1,1006.4,327.5,1.1,1.6,346.7,0.00,21.9,24.8,"00:06:32",1
"23/09/12","00:20",0.0,22.6,95.2,1006.7,306.9,1.0,1.3,327.7,0.00,21.8,24.9,"00:12:08",1
"23/09/12","00:30",0.0,22.6,95.2,1006.7,309.5,1.0,1.4,325.2,0.00,21.8,24.6,"00:24:24",1
"23/09/12","00:40",0.0,22.6,95.4,1006.4,309.6,1.1,1.6,302.8,0.00,21.9,24.7,"00:38:40",1
"23/09/12","00:50",0.0,22.6,95.4,1006.4,288.8,1.0,1.8,318.2,0.00,21.9,24.7,"00:40:40",1
"23/09/12","01:00",0.0,22.4,95.4,1006.4,293.6,0.7,0.9,275.5,0.00,21.7,24.6,"00:57:44",1
"23/09/12","01:10",0.0,22.5,95.5,1006.4,306.3,1.1,1.8,313.7,0.00,21.8,24.6,"01:06:48",1
"23/09/12","01:20",0.0,22.5,95.5,1006.7,313.1,1.2,2.5,326.9,0.00,21.8,24.6,"01:13:28",1
"23/09/12","01:30",0.0,22.5,95.6,1006.4,281.3,0.8,1.3,300.3,0.00,21.8,24.5,"01:27:44",1
"23/09/12","01:40",0.0,22.4,95.6,1006.4,289.9,1.0,1.3,332.2,0.00,21.7,24.6,"01:31:12",1
"23/09/12","01:50",0.0,22.4,95.7,1006.2,278.7,0.5,1.3,316.5,0.00,21.7,24.5,"01:40:16",1
"23/09/12","02:00",0.0,22.3,95.8,1006.4,288.1,0.7,1.3,309.6,0.00,21.6,24.5,"01:58:08",1
"23/09/12","02:10",0.0,22.3,95.8,1006.2,325.9,0.6,1.3,311.3,0.00,21.6,24.7,"02:00:48",1
"23/09/12","02:20",0.0,22.1,95.9,1006.4,291.2,0.7,1.2,260.8,0.00,21.5,24.4,"02:16:48",1
"23/09/12","02:30",0.0,22.1,96.0,1006.4,332.3,1.1,1.7,343.1,0.00,21.5,24.6,"02:24:00",1
"23/09/12","02:40",0.0,22.0,96.0,1006.2,305.8,0.8,1.6,335.5,0.00,21.4,24.5,"02:32:48",1
"23/09/12","02:50",0.0,22.0,96.1,1006.2,306.6,1.0,1.8,308.1,0.00,21.4,24.5,"02:46:16",1
"23/09/12","03:00",0.0,22.1,96.1,1006.2,310.0,1.1,1.9,341.2,0.00,21.5,24.6,"02:57:20",1
"23/09/12","03:10",0.0,22.0,96.1,1006.4,305.7,0.8,1.6,313.9,0.00,21.4,24.3,"03:00:02",1
"23/09/12","03:20",0.0,22.1,96.2,1006.7,312.8,1.2,1.8,328.9,0.00,21.5,24.4,"03:14:48",1
"23/09/12","03:30",0.0,22.1,96.2,1006.4,275.0,1.0,1.6,308.2,0.00,21.5,24.3,"03:20:40",1
"23/09/12","03:40",0.0,22.1,96.2,1006.4,307.1,1.0,1.4,299.5,0.00,21.5,24.3,"03:34:16",1
"23/09/12","03:50",0.0,22.0,96.2,1006.9,315.7,0.7,1.2,316.8,0.00,21.4,24.4,"03:42:16",1
"23/09/12","04:00",0.0,21.9,96.4,1006.4,327.6,1.1,1.7,334.8,0.00,21.3,24.3,"03:56:40",1
"23/09/12","04:10",0.0,21.9,96.3,1006.2,307.3,0.7,1.7,340.7,0.00,21.3,24.3,"04:00:16",1
"23/09/12","04:20",0.0,21.9,96.4,1006.7,299.1,1.1,1.7,313.9,0.00,21.3,24.3,"04:15:44",1
"23/09/12","04:30",0.0,21.9,96.5,1006.4,291.5,1.0,1.4,307.2,0.00,21.4,24.0,"04:29:52",1
"23/09/12","04:40",0.0,21.8,96.5,1006.4,316.9,1.0,1.3,281.2,0.00,21.3,24.3,"04:30:24",1
"23/09/12","04:50",0.0,21.9,96.5,1006.9,276.6,0.7,1.1,260.6,0.00,21.4,24.4,"04:47:52",1
"23/09/12","05:00",0.0,21.9,96.5,1006.4,317.1,1.1,1.6,337.7,0.00,21.4,24.2,"04:54:56",1
"23/09/12","05:10",0.0,21.8,96.5,1006.7,314.2,0.5,1.2,303.0,0.00,21.3,24.2,"05:09:52",1
"23/09/12","05:20",0.0,21.8,96.6,1006.7,329.0,1.1,1.4,327.6,0.00,21.3,24.2,"05:11:36",1
"23/09/12","05:30",0.0,21.8,96.6,1006.9,295.4,0.7,1.1,320.3,0.00,21.3,24.1,"05:29:52",1
"23/09/12","05:40",0.0,21.9,96.7,1006.9,301.5,1.0,1.4,321.8,0.00,21.4,24.1,"05:33:36",1
"23/09/12","05:50",0.0,21.9,96.7,1006.7,302.3,0.5,0.9,269.3,0.00,21.4,24.0,"05:44:32",1
"23/09/12","06:00",0.0,22.0,96.7,1007.1,333.3,0.7,1.4,327.4,0.00,21.5,24.2,"05:55:52",1
"23/09/12","06:10",0.0,22.1,96.7,1006.7,321.7,1.0,1.4,347.4,0.00,21.6,24.2,"06:01:28",1
"23/09/12","06:20",0.0,22.3,96.7,1006.9,290.9,0.7,1.2,311.8,0.01,21.8,24.1,"06:13:12",1
"23/09/12","06:30",0.0,22.7,96.8,1006.9,301.4,0.6,1.0,310.8,0.02,22.2,24.1,"06:21:20",1
"23/09/12","06:40",0.0,23.4,96.8,1006.7,300.1,0.5,1.1,298.9,0.05,22.9,24.1,"06:33:12",1
"23/09/12","06:50",0.0,24.1,96.5,1006.7,5.2,0.2,0.8,310.5,0.06,23.5,24.1,"06:45:04",1
"23/09/12","07:00",0.0,24.2,96.3,1006.7,145.1,0.2,0.9,125.7,0.04,23.6,23.9,"06:55:28",1
"23/09/12","07:10",0.0,24.4,96.2,1006.7,277.2,0.3,0.8,265.8,0.03,23.8,24.1,"07:07:40",1
"23/09/12","07:20",0.0,25.0,96.2,1006.7,298.2,0.6,1.0,319.6,0.07,24.4,24.0,"07:16:16",1
"23/09/12","07:30",0.0,25.2,95.5,1006.9,247.5,0.3,0.8,276.2,0.16,24.5,24.1,"07:20:40",1
"23/09/12","07:40",0.0,26.4,95.6,1006.2,287.5,0.3,1.4,356.1,0.16,25.7,24.0,"07:37:28",1
"23/09/12","07:50",0.0,26.4,94.8,1006.0,253.1,0.2,0.9,217.4,0.15,25.5,24.0,"07:43:36",1
"23/09/12","08:00",0.0,26.6,94.1,1005.5,71.8,0.3,1.1,44.0,0.14,25.6,24.1,"07:53:12",1
"23/09/12","08:10",0.0,26.0,93.5,1006.4,320.7,0.5,1.2,99.8,0.09,24.9,24.2,"08:00:32",1
"23/09/12","08:20",0.0,25.8,93.2,1006.0,148.7,0.6,1.2,88.5,0.05,24.7,24.2,"08:11:36",1
"23/09/12","08:30",0.0,26.3,92.1,1006.2,116.8,0.8,2.5,103.3,0.16,25.0,24.2,"08:29:44",1
"23/09/12","08:40",0.0,27.1,90.8,1006.4,98.8,0.7,1.9,114.7,0.19,25.5,24.2,"08:30:16",1
"23/09/12","08:50",0.0,27.7,87.9,1006.7,43.8,0.5,1.3,20.8,0.12,25.6,24.4,"08:40:56",1
"23/09/12","09:00",0.0,28.0,84.0,1006.9,47.2,0.7,1.7,42.1,0.18,25.1,24.4,"08:51:52",1
"23/09/12","09:10",0.0,28.3,79.6,1006.9,140.7,1.1,2.9,104.0,0.21,24.5,24.5,"09:02:08",1
"23/09/12","09:20",0.0,28.2,78.4,1007.1,52.7,1.0,2.4,98.6,0.11,24.1,24.2,"09:13:52",1
"23/09/12","09:30",0.0,28.3,78.3,1006.7,25.1,0.6,2.5,17.4,0.11,24.2,24.3,"09:29:36",1
"23/09/12","09:40",0.0,28.3,77.7,1006.4,29.8,0.7,1.9,9.2,0.09,24.1,24.4,"09:36:00",1
"23/09/12","09:50",0.0,28.4,77.6,1006.2,158.4,0.6,1.8,181.3,0.11,24.1,24.5,"09:48:40",1
"23/09/12","10:00",0.0,27.8,78.0,1005.7,128.4,0.8,2.0,173.9,0.07,23.7,24.6,"09:53:36",1
"23/09/12","10:10",0.0,28.0,78.2,1005.7,95.1,0.5,1.3,94.2,0.05,23.9,24.5,"10:00:16",1
"23/09/12","10:20",0.0,28.9,77.7,1005.5,158.8,0.8,1.8,179.8,0.26,24.7,24.6,"10:14:32",1
"23/09/12","10:30",0.0,28.8,75.5,1006.0,156.0,1.0,2.7,172.3,0.13,24.1,24.5,"10:27:36",1
"23/09/12","10:40",0.0,29.8,75.6,1006.4,182.6,1.2,2.8,204.7,0.39,25.1,24.5,"10:37:28",1
"23/09/12","10:50",0.0,30.1,72.5,1006.2,128.8,0.8,1.9,122.6,0.27,24.6,24.6,"10:40:08",1
"23/09/12","11:00",0.0,29.9,71.7,1006.7,125.1,0.8,2.4,112.5,0.20,24.3,24.7,"10:57:12",1
"23/09/12","11:10",0.0,30.7,72.4,1006.9,141.7,1.3,5.5,123.2,0.42,25.2,24.8,"11:07:12",1
"23/09/12","11:20",0.0,30.3,70.4,1006.9,164.6,1.3,3.2,216.8,0.27,24.3,24.7,"11:15:36",1
"23/09/12","11:30",0.0,29.6,70.8,1006.7,165.9,1.1,2.7,218.5,0.12,23.8,24.7,"11:27:12",1
"23/09/12","11:40",0.0,29.2,72.6,1006.2,205.8,1.5,3.1,228.0,0.12,23.8,24.8,"11:36:16",1
"23/09/12","11:50",0.0,29.2,72.9,1005.7,195.5,1.2,3.5,230.0,0.14,23.9,24.8,"11:44:48",1
"23/09/12","12:00",0.0,29.5,72.3,1005.5,149.4,1.2,2.6,188.8,0.17,24.0,24.8,"11:51:28",1
"23/09/12","12:10",0.0,29.5,71.6,1005.2,168.9,1.5,4.2,204.8,0.20,23.9,25.0,"12:02:16",1
"23/09/12","12:20",0.0,30.2,70.4,1006.0,147.1,1.1,2.5,195.4,0.37,24.3,25.0,"12:13:20",1
"23/09/12","12:30",0.0,31.8,66.7,1006.2,151.4,1.1,2.5,121.9,0.58,24.9,25.1,"12:28:16",1
"23/09/12","12:40",0.0,32.2,65.7,1006.0,128.3,1.0,2.2,136.5,0.39,25.0,25.0,"12:36:40",1
"23/09/12","12:50",0.0,32.0,63.3,1006.9,176.7,1.1,2.0,180.1,0.47,24.2,25.1,"12:40:48",1
"23/09/12","13:00",0.0,33.2,62.5,1007.4,87.9,0.8,2.2,111.3,0.56,25.1,25.0,"12:52:16",1
"23/09/12","13:10",0.0,33.4,60.9,1007.4,60.1,1.1,2.6,348.3,0.56,24.9,25.1,"13:06:56",1
"23/09/12","13:20",0.0,32.9,60.9,1007.6,96.7,0.8,1.8,87.4,0.33,24.4,25.3,"13:11:52",1
"23/09/12","13:30",0.0,32.5,62.9,1007.1,110.0,0.5,1.9,63.7,0.30,24.6,25.1,"13:29:52",1
"23/09/12","13:40",0.0,32.5,62.1,1006.9,39.6,1.1,2.5,56.2,0.36,24.3,25.2,"13:33:20",1
"23/09/12","13:50",0.0,32.5,63.3,1006.2,81.1,0.8,2.5,21.9,0.34,24.7,25.6,"13:42:24",1
"23/09/12","14:00",0.0,33.0,60.3,1006.4,86.4,1.0,2.2,94.1,0.40,24.3,25.6,"13:58:40",1
"23/09/12","14:10",0.0,31.8,61.9,1006.0,104.5,0.8,2.2,78.7,0.12,23.6,25.5,"14:09:44",1
"23/09/12","14:20",0.0,30.7,64.1,1005.2,110.6,1.0,2.9,130.8,0.06,23.2,25.5,"14:16:02",1
"23/09/12","14:30",0.0,30.0,66.6,1005.0,135.6,1.0,2.2,119.8,0.04,23.1,25.6,"14:28:26",1
"23/09/12","14:40",0.0,29.6,69.0,1003.6,129.0,1.1,2.4,130.2,0.02,23.3,25.5,"14:32:16",1
"23/09/12","14:50",1.8,28.9,73.2,1003.1,107.9,1.0,2.4,87.8,0.01,23.7,25.4,"14:41:44",1
"23/09/12","15:00",2.4,27.9,79.0,1003.1,12.3,0.8,2.0,352.3,0.01,24.0,25.7,"14:50:16",1
"23/09/12","15:10",1.2,27.0,83.1,1003.6,357.3,1.0,1.8,353.4,0.02,23.9,25.6,"15:02:24",1
"23/09/12","15:20",0.4,26.1,85.4,1003.8,202.5,1.6,3.6,201.1,0.02,23.5,25.6,"15:15:28",1
"23/09/12","15:30",0.2,25.9,86.8,1004.1,160.9,1.1,2.6,164.3,0.08,23.6,25.6,"15:29:44",1
"23/09/12","15:40",0.0,25.7,87.2,1004.5,212.0,1.5,3.7,216.0,0.11,23.5,25.7,"15:32:48",1
"23/09/12","15:50",0.0,26.0,87.7,1004.5,270.7,0.3,0.9,257.7,0.11,23.8,25.8,"15:41:44",1
"23/09/12","16:00",0.0,26.1,87.8,1005.0,320.5,0.6,1.4,325.9,0.12,24.0,25.6,"15:55:46",1
"23/09/12","16:10",0.0,26.1,88.1,1004.5,348.5,0.7,1.7,347.3,0.10,24.0,25.6,"16:01:44",1
"23/09/12","16:20",0.0,26.0,88.2,1005.0,327.1,0.8,1.6,347.6,0.09,23.9,25.6,"16:15:20",1
"23/09/12","16:30",0.0,26.3,88.4,1004.8,344.3,1.0,2.4,344.3,0.10,24.3,25.4,"16:28:16",1
"23/09/12","16:40",0.0,26.3,88.5,1005.0,329.2,1.1,1.9,338.9,0.08,24.3,25.4,"16:34:00",1
"23/09/12","16:50",0.0,26.3,88.6,1004.8,322.1,0.8,1.3,315.8,0.06,24.3,25.5,"16:40:32",1
"23/09/12","17:00",0.0,26.2,88.6,1005.0,310.5,1.0,1.9,349.9,0.06,24.2,25.6,"16:59:20",1
"23/09/12","17:10",0.0,26.2,88.8,1005.5,331.5,1.1,2.6,346.7,0.03,24.2,25.5,"17:04:16",1
"23/09/12","17:20",0.0,26.0,89.0,1005.5,340.6,1.3,2.1,322.8,0.01,24.1,25.6,"17:12:56",1
"23/09/12","17:30",0.0,25.9,89.2,1005.2,326.6,1.0,1.7,344.6,0.00,24.0,25.6,"17:27:12",1
"23/09/12","17:40",0.0,25.9,89.6,1005.0,317.5,1.1,1.8,320.0,0.00,24.1,25.7,"17:36:48",1
"23/09/12","17:50",0.0,25.7,89.9,1004.8,319.8,0.3,1.1,346.5,0.00,24.0,25.7,"17:49:28",1
"23/09/12","18:00",0.0,25.5,90.2,1005.2,307.5,0.7,1.1,323.2,0.00,23.8,25.7,"17:53:04",1
"23/09/12","18:10",0.0,25.4,90.6,1005.5,313.7,1.0,1.4,318.5,0.00,23.8,25.6,"18:05:36",1
"23/09/12","18:20",0.0,25.2,90.8,1005.5,320.2,1.0,2.4,339.1,0.00,23.6,25.5,"18:12:16",1
"23/09/12","18:30",0.0,25.0,91.1,1005.7,333.1,0.8,1.7,318.3,0.00,23.5,25.5,"18:20:56",1
"23/09/12","18:40",0.0,24.8,91.4,1006.0,311.9,0.7,1.3,333.0,0.00,23.3,25.5,"18:35:28",1
"23/09/12","18:50",0.0,24.9,91.6,1005.7,278.8,0.7,1.3,327.1,0.00,23.5,25.5,"18:49:20",1
"23/09/12","19:00",0.0,24.9,91.8,1005.7,315.8,1.0,1.6,322.2,0.00,23.5,25.3,"18:53:36",1
"23/09/12","19:10",0.0,24.9,91.9,1006.2,337.8,0.8,1.4,359.2,0.00,23.5,25.6,"19:01:36",1
"23/09/12","19:20",0.0,24.8,92.1,1006.2,324.1,0.6,1.0,343.3,0.00,23.5,25.4,"19:10:40",1
"23/09/12","19:30",0.0,24.8,92.3,1006.2,333.3,0.5,1.3,342.9,0.00,23.5,25.6,"19:28:00",1
"23/09/12","19:40",0.0,24.7,92.4,1006.7,326.6,0.7,1.2,331.3,0.00,23.4,25.6,"19:31:44",1
"23/09/12","19:50",0.0,24.6,92.5,1006.7,316.0,0.7,1.1,331.9,0.00,23.3,25.4,"19:42:00",1
"23/09/12","20:00",0.0,24.5,92.7,1006.9,322.8,1.0,1.6,333.9,0.00,23.3,25.4,"19:52:00",1
"23/09/12","20:10",0.0,24.5,92.8,1006.7,341.9,0.8,1.6,341.1,0.00,23.3,25.1,"20:00:16",1
"23/09/12","20:20",0.0,24.3,92.9,1006.9,324.0,0.7,1.2,326.3,0.00,23.1,25.2,"20:10:24",1
"23/09/12","20:30",0.0,24.2,93.1,1007.1,308.2,0.6,1.0,312.2,0.00,23.1,25.2,"20:29:20",1
"23/09/12","20:40",0.0,24.1,93.2,1007.1,294.2,0.6,0.9,304.6,0.00,23.0,25.3,"20:30:08",1
"23/09/12","20:50",0.0,24.0,93.3,1007.1,292.9,0.7,0.9,292.1,0.00,22.9,25.3,"20:43:36",1
"23/09/12","21:00",0.0,23.9,93.4,1007.4,311.0,0.8,1.3,326.5,0.00,22.8,25.2,"20:55:20",1
"23/09/12","21:10",0.0,23.8,93.6,1006.9,320.6,0.7,1.4,326.8,0.00,22.7,25.2,"21:04:00",1
"23/09/12","21:20",0.0,23.8,93.7,1007.1,337.4,0.8,1.1,0.6,0.00,22.8,25.3,"21:11:12",1
"23/09/12","21:30",0.0,23.6,93.9,1006.9,304.8,0.8,1.3,326.9,0.00,22.6,25.2,"21:20:32",1
"23/09/12","21:40",0.0,23.5,93.9,1006.9,296.0,0.6,0.9,306.7,0.00,22.5,25.3,"21:34:08",1
"23/09/12","21:50",0.0,23.4,94.1,1007.1,314.3,0.6,1.2,331.5,0.00,22.4,25.0,"21:40:02",1
"23/09/12","22:00",0.0,23.3,94.2,1006.9,326.1,1.0,1.7,339.7,0.00,22.4,25.2,"21:52:24",1
"23/09/12","22:10",0.0,23.3,94.3,1007.1,311.3,1.0,1.2,313.7,0.00,22.4,25.0,"22:06:24",1
"23/09/12","22:20",0.0,23.2,94.4,1007.1,301.0,0.6,1.1,328.4,0.00,22.3,25.0,"22:10:02",1
"23/09/12","22:30",0.0,23.2,94.4,1007.1,304.7,0.6,1.1,326.2,0.00,22.3,25.0,"22:20:08",1
"23/09/12","22:40",0.0,23.1,94.6,1007.4,302.3,0.8,1.4,324.9,0.00,22.2,25.0,"22:39:36",1
"23/09/12","22:50",0.0,23.2,94.6,1007.1,314.4,1.0,1.7,318.2,0.00,22.3,25.1,"22:44:32",1
"23/09/12","23:00",0.0,23.1,94.7,1007.4,311.7,0.8,1.2,307.2,0.00,22.2,24.8,"22:54:40",1
"23/09/12","23:10",0.0,23.1,94.8,1007.4,304.3,0.8,1.3,318.6,0.00,22.3,24.9,"23:09:20",1
"23/09/12","23:20",0.0,23.1,94.9,1007.1,306.8,1.0,1.3,320.4,0.00,22.3,25.0,"23:13:04",1
"23/09/12","23:30",0.0,23.1,94.9,1007.1,324.4,0.8,1.7,316.5,0.00,22.3,24.8,"23:22:48",1
"23/09/12","23:40",0.0,23.1,95.0,1007.6,328.7,0.8,1.4,325.4,0.00,22.3,24.7,"23:37:20",1
"23/09/12","23:50",0.0,23.0,95.1,1007.1,328.5,1.0,1.6,325.3,0.00,22.2,24.9,"23:48:32",1
"23/09/12","24:00",0.0,22.9,95.1,1007.1,301.2,0.5,1.7,329.5,0.00,22.1,24.8,"23:50:08",1
